TimePST,TemperatureF,Dew PointF,Humidity,Sea Level PressureIn,VisibilityMPH,Wind Direction,Wind SpeedMPH,Gust SpeedMPH,PrecipitationIn,Events,Conditions,WindDirDegrees,DateUTC
12:01 AM,44.6,41.0,87,30.26,10.0,WSW,3.5,-,N/A,,Scattered Clouds,240,2013-11-06 08:01:00
12:53 AM,44.1,41.0,89,30.27,9.0,Calm,Calm,-,N/A,,Clear,0,2013-11-06 08:53:00
1:08 AM,42.8,39.2,87,30.27,7.0,West,4.6,-,N/A,,Scattered Clouds,280,2013-11-06 09:08:00
1:14 AM,42.8,39.2,87,30.27,1.8,West,3.5,-,N/A,,Mostly Cloudy,260,2013-11-06 09:14:00
1:20 AM,42.8,39.2,87,30.27,0.2,Calm,Calm,-,N/A,Fog,Fog,0,2013-11-06 09:20:00
1:53 AM,43.0,41.0,93,30.28,0.2,Calm,Calm,-,N/A,Fog,Fog,0,2013-11-06 09:53:00
2:32 AM,42.8,39.2,87,30.28,0.5,Calm,Calm,-,N/A,Fog,Fog,0,2013-11-06 10:32:00
2:42 AM,42.8,41.0,93,30.28,1.2,Calm,Calm,-,N/A,,Overcast,0,2013-11-06 10:42:00
2:53 AM,42.1,39.9,92,30.29,1.8,Calm,Calm,-,N/A,,Overcast,0,2013-11-06 10:53:00
3:11 AM,42.8,41.0,93,30.28,0.5,Calm,Calm,-,N/A,Fog,Fog,0,2013-11-06 11:11:00
3:28 AM,42.8,41.0,93,30.28,0.2,WSW,3.5,-,N/A,Fog,Fog,240,2013-11-06 11:28:00
3:53 AM,43.0,42.1,97,30.28,0.2,Calm,Calm,-,N/A,Fog,Fog,0,2013-11-06 11:53:00
4:07 AM,42.8,42.8,100,30.28,0.5,Calm,Calm,-,N/A,Fog,Fog,0,2013-11-06 12:07:00
4:44 AM,44.6,42.8,93,30.28,0.2,Calm,Calm,-,N/A,Fog,Fog,0,2013-11-06 12:44:00
4:53 AM,45.0,43.0,93,30.30,0.2,Calm,Calm,-,N/A,Fog,Fog,0,2013-11-06 12:53:00
5:39 AM,44.6,42.8,93,30.29,0.5,Calm,Calm,-,N/A,Fog,Fog,0,2013-11-06 13:39:00
5:51 AM,44.6,42.8,93,30.29,2.0,Calm,Calm,-,N/A,,Overcast,0,2013-11-06 13:51:00
5:52 AM,44.1,42.1,93,30.30,2.0,Calm,Calm,-,N/A,,Overcast,0,2013-11-06 13:52:00
6:00 AM,44.6,42.8,93,30.29,4.0,Calm,Calm,-,N/A,,Overcast,0,2013-11-06 14:00:00
6:53 AM,45.0,42.1,90,30.31,7.0,Calm,Calm,-,N/A,,Overcast,0,2013-11-06 14:53:00
7:53 AM,46.0,43.0,89,30.32,2.0,Calm,Calm,-,N/A,,Overcast,0,2013-11-06 15:53:00
8:53 AM,46.9,44.1,90,30.33,2.0,Calm,Calm,-,N/A,,Overcast,0,2013-11-06 16:53:00
8:54 AM,46.9,44.1,90,30.33,2.0,Calm,Calm,-,N/A,,Overcast,0,2013-11-06 16:54:00
9:33 AM,46.4,44.6,93,30.31,2.0,NNW,3.5,-,N/A,,Overcast,330,2013-11-06 17:33:00
9:43 AM,46.4,42.8,87,30.32,2.0,NW,3.5,-,N/A,,Overcast,320,2013-11-06 17:43:00
9:53 AM,46.9,44.1,90,30.32,2.0,NNW,3.5,-,N/A,,Overcast,340,2013-11-06 17:53:00
10:42 AM,48.2,44.6,87,30.31,2.0,Calm,Calm,-,N/A,,Overcast,0,2013-11-06 18:42:00
10:53 AM,48.9,44.1,83,30.32,2.0,Calm,Calm,-,N/A,,Haze,0,2013-11-06 18:53:00
11:53 AM,48.9,43.0,80,30.31,3.0,NNE,4.6,-,N/A,,Haze,20,2013-11-06 19:53:00
12:25 PM,48.2,42.8,82,30.29,6.0,NNE,3.5,-,N/A,,Haze,30,2013-11-06 20:25:00
12:53 PM,48.9,42.1,77,30.28,6.0,Variable,3.5,-,N/A,,Haze,0,2013-11-06 20:53:00
1:53 PM,50.0,43.0,77,30.26,10.0,Calm,Calm,-,N/A,,Partly Cloudy,0,2013-11-06 21:53:00
2:53 PM,51.1,43.0,74,30.24,10.0,North,5.8,-,N/A,,Overcast,350,2013-11-06 22:53:00
3:53 PM,50.0,44.1,80,30.23,10.0,North,3.5,-,N/A,,Overcast,10,2013-11-06 23:53:00
4:53 PM,50.0,43.0,77,30.21,10.0,North,4.6,-,0.00,Rain,Light Rain,10,2013-11-07 00:53:00
5:53 PM,48.9,45.0,86,30.20,10.0,Calm,Calm,-,0.00,Rain,Light Rain,0,2013-11-07 01:53:00
6:53 PM,48.0,45.0,89,30.18,10.0,North,4.6,-,0.00,Rain,Light Rain,10,2013-11-07 02:53:00
7:53 PM,48.0,45.0,89,30.17,8.0,Calm,Calm,-,0.00,,Overcast,0,2013-11-07 03:53:00
8:11 PM,48.2,44.6,87,30.15,7.0,North,3.5,-,N/A,,Overcast,360,2013-11-07 04:11:00
8:53 PM,48.0,45.0,89,30.14,6.0,Calm,Calm,-,0.00,Rain,Light Rain,0,2013-11-07 04:53:00
9:53 PM,46.9,45.0,93,30.12,4.0,Calm,Calm,-,0.00,Rain,Light Rain,0,2013-11-07 05:53:00
10:53 PM,48.0,45.0,89,30.07,5.0,Calm,Calm,-,0.00,Rain,Light Rain,0,2013-11-07 06:53:00
11:02 PM,48.2,44.6,87,30.07,5.0,Calm,Calm,-,0.00,Rain,Light Rain,0,2013-11-07 07:02:00
11:23 PM,48.2,44.6,87,30.05,5.0,Calm,Calm,-,0.00,Rain,Light Rain,0,2013-11-07 07:23:00
11:53 PM,48.0,45.0,89,30.04,5.0,Calm,Calm,-,0.00,Rain,Light Rain,0,2013-11-07 07:53:00